Almeria, Spain

9:46 PM CEST on August 17, 2017 (GMT +0200)
Almeria

Weather History for LEAM - April, 2013

Change the Weather History Date:

Saturday, April 6, 2013

  Actual Average Record
Temperature  
Mean Temperature 58 °F -  
Max Temperature 63 °F 67 °F 84 °F (1999)
Min Temperature 54 °F 55 °F 46 °F (2003)
Degree Days  
Heating Degree Days 6    
Growing Degree Days 8 (Base 50)    
Moisture  
Dew Point 40 °F    
Average Humidity 48    
Maximum Humidity 74    
Minimum Humidity 22    
Precipitation  
Precipitation 0.00 in 0.03 in - ()
Sea Level Pressure  
Sea Level Pressure 30.00 in    
Wind  
Wind Speed 12 mph ()    
Max Wind Speed 22 mph    
Max Gust Speed 32 mph    
Visibility 6.2 miles    
Events      
Averages and records for this station are not official NWS values.
T = Trace of Precipitation, MM = Missing Value Source: Averaged Metar Reports

Daily Weather History Graph

Daily Weather History Graph

Search for Another Location

Airport or City:

Trip Planner

Search our weather history database for the weather conditions in past years. The results will help you decide how hot, cold, wet, or windy it might be!

Date:

Astronomy

Apr. 06, 2013 Rise Set
Actual Time 7:48 AM CEST 8:36 PM CEST
Civil Twilight 7:21 AM CEST 9:02 PM CEST
Nautical Twilight 6:50 AM CEST 9:33 PM CEST
Astronomical Twilight 6:18 AM CEST 10:05 PM CEST
Moon 5:17 AM CEST (4/6) 4:54 PM CEST (4/6)
Length of Visible Light 13h 40m
Length of Day
12h 48m
Waning Crescent, 17% of the Moon is Illuminated
Apr 6
Waning Crescent
Apr 10
New
Apr 18
First Quarter
Apr 25
Full
May 2
Last Quarter

Hourly Weather History & Observations

Time (CEST) Temp. Dew Point Humidity Pressure Visibility Wind Dir Wind Speed Gust Speed Precip Events Conditions
2:00 AM 55 °F 49 °F 74% 29.88 in - North 5.8 mph - -  
5:00 AM 59.0 °F 35.6 °F 42% 29.89 in 6.2 mi NW 15.0 mph - N/A   Scattered Clouds
5:30 AM 57.2 °F 35.6 °F 44% 29.89 in 6.2 mi NW 13.8 mph - N/A   Scattered Clouds
6:30 AM 57.2 °F 33.8 °F 41% 29.92 in 6.2 mi NW 17.3 mph 28.8 mph N/A   Scattered Clouds
7:00 AM 57.2 °F 32.0 °F 38% 29.92 in 6.2 mi NW 15.0 mph - N/A   Scattered Clouds
7:30 AM 57.2 °F 32.0 °F 38% 29.95 in 6.2 mi NW 13.8 mph - N/A   Scattered Clouds
8:00 AM 55 °F 29 °F 25% 29.97 in 22 mi NW 11.5 mph - -   Scattered Clouds
8:00 AM 57.2 °F 30.2 °F 36% 29.98 in 6.2 mi NW 11.5 mph - N/A   Scattered Clouds
8:30 AM 57.2 °F 32.0 °F 38% 29.98 in 6.2 mi NNW 10.4 mph - N/A   Scattered Clouds
9:00 AM 57.2 °F 30.2 °F 36% 29.98 in 6.2 mi North 10.4 mph - N/A   Scattered Clouds
9:30 AM 60.8 °F 30.2 °F 31% 30.01 in 6.2 mi NNW 8.1 mph - N/A   Scattered Clouds
10:00 AM 60.8 °F 28.4 °F 29% 30.01 in 6.2 mi NW 15.0 mph 26.5 mph N/A   Scattered Clouds
10:30 AM 62.6 °F 28.4 °F 27% 30.01 in 6.2 mi NW 18.4 mph 32.2 mph N/A   Scattered Clouds
11:00 AM 62.6 °F 26.6 °F 26% 30.01 in 6.2 mi NW 19.6 mph 32.2 mph N/A   Partly Cloudy
11:30 AM 64.4 °F 24.8 °F 22% 30.04 in 6.2 mi NNW 19.6 mph 31.1 mph N/A   Partly Cloudy
12:00 PM 60.8 °F 48.2 °F 63% 30.06 in 6.2 mi SE 9.2 mph 20.7 mph N/A   Scattered Clouds
12:30 PM 62.6 °F 46.4 °F 55% 30.04 in 6.2 mi ESE 10.4 mph - N/A   Scattered Clouds
1:00 PM 62.6 °F 50.0 °F 63% 30.04 in 6.2 mi SE 16.1 mph - N/A   Scattered Clouds
1:30 PM 59.0 °F 48.2 °F 67% 30.04 in 6.2 mi SSE 20.7 mph - N/A   Scattered Clouds
2:00 PM 61 °F 44 °F 42% 30.05 in 28 mi SSE 16.1 mph - -   Partly Cloudy
2:00 PM 62.6 °F 46.4 °F 55% 30.04 in 6.2 mi SSE 16.1 mph - N/A   Scattered Clouds
2:30 PM 60.8 °F 48.2 °F 63% 30.04 in 6.2 mi South 16.1 mph - N/A   Scattered Clouds
3:00 PM 60.8 °F 48.2 °F 63% 30.04 in 6.2 mi South 12.7 mph - N/A   Partly Cloudy
3:30 PM 60.8 °F 50.0 °F 68% 30.04 in 6.2 mi South 10.4 mph - N/A   Partly Cloudy
4:00 PM 62.6 °F 50.0 °F 63% 30.01 in 6.2 mi South 9.2 mph - N/A   Partly Cloudy
4:30 PM 60.8 °F 50.0 °F 68% 30.01 in 6.2 mi South 8.1 mph - N/A   Partly Cloudy
5:00 PM 62.6 °F 46.4 °F 55% 30.01 in 6.2 mi SSW 8.1 mph - N/A   Partly Cloudy
5:30 PM 64.4 °F 44.6 °F 49% 29.98 in 6.2 mi SSW 17.3 mph - N/A   Partly Cloudy
6:00 PM 64.4 °F 41.0 °F 42% 29.98 in 6.2 mi SW 17.3 mph - N/A   Partly Cloudy
6:30 PM 64.4 °F 41.0 °F 42% 29.98 in 6.2 mi SW 20.7 mph - N/A   Partly Cloudy
7:00 PM 62.6 °F 42.8 °F 48% 29.98 in 6.2 mi SW 21.9 mph - N/A   Partly Cloudy
7:30 PM 62.6 °F 44.6 °F 52% 29.98 in 6.2 mi SW 17.3 mph 28.8 mph N/A   Partly Cloudy
8:00 PM 60 °F 44 °F 45% 30.01 in 28 mi SW 17.3 mph - -   Scattered Clouds
8:00 PM 60.8 °F 46.4 °F 59% 30.01 in 6.2 mi SW 16.1 mph - N/A   Partly Cloudy
8:30 PM 60.8 °F 44.6 °F 55% 30.01 in 6.2 mi WSW 13.8 mph - N/A   Partly Cloudy
9:00 PM 59.0 °F 44.6 °F 59% 30.04 in 6.2 mi WSW 8.1 mph - N/A   Partly Cloudy
9:30 PM 60.8 °F 32.0 °F 34% 30.04 in 6.2 mi NW 3.5 mph - N/A   Partly Cloudy
10:00 PM 59.0 °F 42.8 °F 55% 30.06 in 6.2 mi Variable 2.3 mph - N/A   Partly Cloudy
10:30 PM 59.0 °F 41.0 °F 51% 30.06 in 6.2 mi NNE 5.8 mph - N/A   Partly Cloudy